Regional Weather Roundup
Issued by NWS Sterling, VA

Home | Current Version | Previous Version | Graphics & Text | Print | Product List | Glossary On
Versions: 1 2 3 4 5 6 7 8 9 10 11 12 13 14 15 16 17 18 19 20 21 22 23 24 25 26 27 28 29 30 31 32 33 34 35 36 37 38 39 40 41 42 43 44 45 46 47 48 49 50
688
ASUS41 KLWX 132310
RWRLWX

REGIONAL WEATHER ROUNDUP
NATIONAL WEATHER SERVICE BALTIMORE MD/WASHINGTON DC
600 PM EST SAT FEB 13 2016

Note: "FAIR" indicates few or no clouds below 12,000 feet
with no significant weather and/or obstructions to visibility.
 TC=TEMPERATURE CELSIUS

 * =Non NWS site. Station does not report precipitation (e.g. rain,
    snow, etc.), thunder, or fog.

DCZ001-MDZ009-015-VAZ040>042-051-053>054-140000-
WASHINGTON METRO

CITY           SKY/WX    TMP DP  RH WIND       PRES   REMARKS
WASHINGTON NAT FAIR      19  -8  30 NW17G31   30.39R WCI   4
DULLES         MOCLDY    17  -6  35 NW20G25   30.37R WCI   1
ANDREWS AFB    PTCLDY    18  -5  36 W23G29    30.33R WCI   0
FT BELVOIR     FAIR      19  -7  31 NW18G28   30.38R WCI   4
QUANTICO       FAIR      21  -6  30 N9G29     30.41R WCI  11
LEESBURG*      CLOUDY    19   0  42 W17G23    30.38R WCI   4
MANASSAS*      CLEAR     18  -4  38 NW20G28   30.38R WCI   1
GAITHERSBURG*  PTCLDY    14  -6  41 NW15G30   30.37R WCI  -1

$$

MDZ006>007-011-014-140000-
BALTIMORE METRO

CITY           SKY/WX    TMP DP  RH WIND       PRES   REMARKS
BWI AIRPORT    PTCLDY    16  -5  39 W16G26    30.35R WCI   1
MD SCIENCE CTR   N/A     17  -3  41 MISG      30.34R
MARTIN STATE   MOCLDY    18   3  53 W16G28    30.36R WCI   3
ANNAPOLIS      CLOUDY    19   1  45 NW13G20   30.36R WCI   6
FORT MEADE*    MOCLDY    18   0  45 NW10G17   30.38R WCI   6

$$

MDZ012-015-019>023-140000-
MARYLAND EASTERN SHORE

CITY           SKY/WX    TMP DP  RH WIND       PRES   REMARKS
OCEAN CITY     PTCLDY    19  -2  39 NW15G22   30.30R WCI   5
SALISBURY      MOCLDY    19  -3  38 NW13G23   30.31R WCI   6
BAY BRIDGE AP*   N/A     19  -4  35 NW20G29   30.35R WCI   4
EASTON*        MOCLDY    21   0  39 NW23G40   30.37  WCI   5

$$

MDZ017>025-140000-
SOUTHERN MARYLAND

CITY           SKY/WX    TMP DP  RH WIND       PRES   REMARKS
PATUXENT RIVER PTCLDY    20  -6  31 NW17      30.35R WCI   5
ST INIGOES     CLEAR     21  -4  33 NW15G23   30.34R WCI   8
LEONARDTOWN*   NOT AVBL

$$

MDZ003>005-140000-
NORTH CENTRAL MARYLAND

CITY           SKY/WX    TMP DP  RH WIND       PRES   REMARKS
FREDERICK*     CLOUDY    16   1  53 NW21      30.39R WCI  -2
HAGERSTOWN APT CLOUDY    14  -5  42 NW22      30.32R WCI  -4
WESTMINSTER*   MOCLDY    12   5  73 NW12G18   30.29R WCI  -2

$$

MDZ501>502-140000-
WESTERN MARYLAND

CITY           SKY/WX    TMP DP  RH WIND       PRES   REMARKS
OAKLAND*       MOCLDY     1  -6  71 NW12G20   30.15R WCI -15
CUMBERLAND*    CLEAR     14  -6  41 NW10G22   30.41R WCI   1

$$

VAZ025>031-140000-
SHENANDOAH VALLEY

CITY           SKY/WX    TMP DP  RH WIND       PRES   REMARKS
WINCHESTER*    MOCLDY    18  -4  38 W17G24    30.35R WCI   2
FRONT ROYAL*   CLOUDY    18  -6  35 W12G23    30.35R WCI   5
LURAY*         FAIR      16  -6  38 W9G22     30.35R WCI   4
NEW MARKET*    FAIR      15  -8  35 NW5       30.33R
STAUNTON*      FAIR      20  -7  29 NW12      30.33R WCI   8
WAYNESBORO*    FAIR      16 -14  25 NW14G21   30.28R WCI   2

$$

WVZ021-048>050-054>055-140000-
EASTERN WEST VIRGINIA PANHANDLE

CITY           SKY/WX    TMP DP  RH WIND       PRES   REMARKS
MARTINSBURG    CLOUDY    14  -6  40 NW17G23   30.36R WCI  -3
PETERSBURG*    MOCLDY    14  -5  43 CALM      30.38R

$$

VAZ036>039-050-140000-
CENTRAL FOOTHILLS

CITY           SKY/WX    TMP DP  RH WIND       PRES   REMARKS
CHARLOTTESVILL FAIR      21  -9  26 N8        30.34R WCI  11
CULPEPER*      FAIR      19  -7  31 NW10      30.39R WCI   7
ORANGE*        FAIR      21  -6  30 NW7       30.38R
GORDONSVILLE*  FAIR      20  -7  29 N5        30.35R
WARRENTON*     FAIR      19  -1  41 NW10G17   30.36R WCI   8

$$

VAZ055>057-140000-
NORTH AND CENTRAL PIEDMONT

CITY           SKY/WX    TMP DP  RH WIND       PRES   REMARKS
FREDERICKSBRG* FAIR      21  -4  33 NW9G16    30.38R WCI  10
STAFFORD*      FAIR      19  -7  31 NW16      30.41R WCI   4

$$

NCZ024-NYZ072-PAZ021-071-VAZ022-071-140000-
OTHER REGIONAL OBSERVATIONS

CITY           SKY/WX    TMP DP  RH WIND       PRES   REMARKS
NEW YORK CITY  PTCLDY    10 -16  29 NW17G36   30.24R WCI  -8
PHILADELPHIA   PTCLDY    16 -13  26 NW25G31   30.31R WCI  -3
PITTSBURGH     MOCLDY     8   2  76 W13       30.37R WCI  -8
ROANOKE        FAIR      19  -7  31 W14       30.36R WCI   6
RICHMOND       FAIR      24  -7  25 N18       30.34R WCI  10
RALEIGH        PTCLDY    30  -2  25 VRB6      30.35R

$$

ANZ530>537-140000-
MARINE OBSERVATIONS

STATION/POSITION TIME  TEMP    WIND        PRES
                       AIR SEA DIR/SP/G
                 (UTC) (F)     (DEG/KT/KT) (MB)
THOMAS PT LIGHT  2200          320/ 22       N/A
BALT KEY BRIDGE  2200   19                 1026.6R
COVE POINT       2200   20                 1026.9R
LEWISETTA        2200   23 36              1026.4R
SOLOMONS ISLAND  2200   22 38                N/A
PINEY POINT      2200          350/ 29/ 33   N/A

$$





USA.gov is the U.S. government's official web portal to all federal, state and local government web resources and services.